Notices

What's New in latest Release from April 7th, 2021:

- Updated Glossary, including Speed of Maximum Gust, and Total Hourly Precipitation

- Updated national and regional climate services offices contacts and prices information

- Addition of station inventory lists for 1981-2010, 1971-2000, and 1961-1990 Normals.

If you haven't already, please take our survey and provide feedback about our website: https://eccc.sondage-survey.ca/f/LanguageSelection.aspx?s=442ca660-fcf1-47c0-95a9-59707d6fd709

Hourly Data Report for December 24, 2019

SAINT JOHN A
NEW BRUNSWICK
Current Station Operator: NAVCAN

45°18'58.000" N
65°53'24.000" W
108.80 m
8104901
71609
YSJ

Download Data

Hourly Data (December 2019)
Hourly Data Report for December 24, 2019
TIME
LST
Temp Definition
°C
Dew Point Definition
°C
Rel Hum Definition
%
Precip. Amount Definition
mm

Wind Dir Definition
10's deg

Wind Spd Definition
km/h
Visibility Definition
km
Stn Press Definition
kPa
Hmdx Definition


Wind Chill Definition


Weather Definition


00:00 3.8 1.9 88   28 16 24.1 98.97     LegendNANA
01:00 3.5 -0.9 73   30 25 24.1 98.91     LegendNANA
02:00 3.1 -1.9 70   29 24 24.1 98.93     Cloudy
03:00 2.5 -2.7 68   31 31 24.1 99.02     LegendNANA
04:00 1.5 -3.0 72   32 31 24.1 99.12     LegendNANA
05:00 1.0 -3.9 70   31 27 24.1 99.19     Cloudy
06:00 0.7 -5.0 66   32 35 24.1 99.28     LegendNANA
07:00 -0.3 -7.1 60   31 54 24.1 99.37   -9 LegendNANA
08:00 -0.7 -7.9 58   31 45 24.1 99.48   -9 Cloudy
09:00 -1.1 -7.2 63   32 42 24.1 99.58   -9 LegendNANA
10:00 -1.1 -7.3 63   33 48 24.1 99.66   -9 LegendNANA
11:00 -0.9 -7.9 59   32 48 24.1 99.69   -9 Mostly Cloudy
12:00 -0.8 -7.8 59   31 49 24.1 99.71   -9 LegendNANA
13:00 -0.6 -8.1 57   31 43 24.1 99.75   -8 LegendNANA
14:00 -0.6 -8.3 56   33 50 24.1 99.76   -9 Clear
15:00 -0.7 -9.1 53   32 52 24.1 99.82   -9 LegendNANA
16:00 -1.3 -9.1 56   32 33 24.1 99.87   -8 LegendNANA
17:00 -2.2 -9.7 57   33 33 24.1 99.98   -10 Clear
18:00 -2.8 -9.7 59   33 35 24.1 100.08   -11 LegendNANA
19:00 -3.4 -9.8 62   32 32 24.1 100.25   -11 LegendNANA
20:00 -3.9 -9.9 63   34 26 24.1 100.38   -11 Clear
21:00 -4.5 -10.0 66   33 19 24.1 100.44   -11 LegendNANA
22:00 -5.1 -10.1 68   34 19 24.1 100.49   -12 LegendNANA
23:00 -5.5 -10.1 70   33 17 24.1 100.58   -12 Clear

Notes on Data Quality.

Legend

  • E = Estimated
  • M = Missing
  • NA = Not Available*
  • [empty] = Indicates an unobserved value
Date modified: